Regional Weather Roundup
Issued by NWS Cleveland, OH

Home | Current Version | Previous Version | Graphics & Text | Print | Product List | Glossary On
Versions: 1 2 3 4 5 6 7 8 9 10 11 12 13 14 15 16 17 18 19 20 21 22 23 24 25 26 27 28 29 30 31 32 33 34 35 36 37 38 39 40 41 42 43 44 45 46 47 48 49 50
000
ASUS41 KCLE 311312
RWRCLE
OHIO REGIONAL WEATHER ROUNDUP
NATIONAL WEATHER SERVICE WILMINGTON, OH
900 AM EDT TUE MAY 31 2016

NOTE: "FAIR" INDICATES FEW OR NO CLOUDS BELOW 12,000 FEET WITH NO
SIGNIFICANT WEATHER AND/OR OBSTRUCTIONS TO VISIBILITY.

OHZ001>008-015>018-024>027-034-035-043-044-311400-
   NORTHWEST OHIO

CITY           SKY/WX    TMP DP  RH WIND       PRES   REMARKS
DEFIANCE       FAIR      71  53  52 NE3       30.04R
FINDLAY        FAIR      73  53  49 NE6       30.02R
TOLEDO EXPRESS FAIR      70  54  56 NE6       30.03R
TOLEDO EXEC    FAIR      73  57  57 NE6       30.03R
LIMA           FAIR      71  55  56 NE6       30.03R
$$

OHZ009>014-019>023-028>033-038-089-311400-
   NORTHEAST OHIO

CITY           SKY/WX    TMP DP  RH WIND       PRES   REMARKS
CLE-HOPKINS    PTSUNNY   74  59  59 CALM      30.03R
CLE-LAKEFRONT  FAIR      75  58  55 CALM      30.00S
CUY CO. ARPT   NOT AVBL
LORAIN-ELYRIA  FAIR      72  60  66 NE3       30.02R
ASHTABULA      FAIR      69  61  75 CALM      30.04R
AKRON-CANTON   FAIR      73  59  61 CALM      30.02S
WOOSTER        FAIR      72  59  63 VRB3      30.03R
MANSFIELD      NOT AVBL
YOUNGSTOWN     PTSUNNY   72  56  57 SE3       30.03R
$$

OHZ042-051>053-060>062-070>072-077>081-311400-
  SOUTHWEST OHIO

CITY           SKY/WX    TMP DP  RH WIND       PRES   REMARKS
CINC-COVINGTON PTSUNNY   76  61  59 CALM      30.02R
CINC-LUNKEN    FAIR      70  65  84 CALM      30.02R
HAMILTON       FAIR      73  63  70 CALM      30.02R
DAYTON         PTSUNNY   73  60  63 CALM      30.03R
WRIGHT-PAT AFB FAIR      69  66  89 CALM      30.02R
DAYTON GENERAL FAIR      73  58  59 CALM      30.01S
WILMINGTON     FAIR      75  62  64 S3        30.02R
$$

OHZ036-037-039>041-045>050-054>059-063>069-073>076-082>088-311400-
  CENTRAL AND SOUTHEAST OHIO

CITY           SKY/WX    TMP DP  RH WIND       PRES   REMARKS
COLUMBUS       FAIR      71  61  70 CALM      30.01S
OSU AIRPORT    FAIR      72  63  73 CALM      30.01S
BOLTON FIELD   NOT AVBL
RICKENBACK AFB FAIR      70  64  79 CALM      30.01S
NEWARK         FAIR      71  62  73 CALM      30.01S
MARION         FAIR      72  59  63 NE6       30.02S
LANCASTER      FAIR      73  62  68 CALM      30.02R
ZANESVILLE     FAIR      72  62  71 CALM      30.02R
NEW PHILLY     FAIR      71  60  68 CALM      30.02S
$$




USA.gov is the U.S. government's official web portal to all federal, state and local government web resources and services.